Aérodrome :
LOGIN :

S'inscrire | Disclaimer

   EN    FR    IT 

 










Légende :    VFR   VFR Marginal   IFR   IFR Intensif   IFR Très Intensif
Visi : 
Plafond : 
>= 8 km
>= 3000ft
5 à 8 km
1000 à 3000 ft
1500m à 5 km
500 à 1000 ft
800 à 1500m
200 à 500 ft
< 800m
< 200 ft
Symboles :   Orages  Brouillard  Fortes neiges  Fortes précipitations  Vent > 20 kt
SIGMETs :   Divers  Orages  Givrage  Turbulence  Onde Orograph.  Cendres Volcan.







- Altitude de l'aérodrome : 479 ft
- Code IATA : DOL
- Voir les cartes d'approche


LFRG - Deauville

DERNIER METAR :
  • 192030Z AUTO 23001KT CAVOK 09/08 Q1024

METARs EXPIRÉS :
  • 192000Z AUTO 00000KT CAVOK 09/08 Q1024 NOSIG
  • 191930Z AUTO 23001KT CAVOK 09/08 Q1024 NOSIG
  • 191900Z AUTO 23002KT CAVOK 10/08 Q1024 NOSIG
  • 191830Z AUTO 00000KT CAVOK 11/08 Q1024 NOSIG
  • 191800Z AUTO 35002KT CAVOK 13/09 Q1023 NOSIG

TAF TAF LFRG
Valide du 19 à 15h jusqu'au 20 à 00h UTC


191400Z 1915/1924 31006KT 9999 SCT025
BECMG 1919/1921 19005KT
ATIS : +33 2 31 65 65 36
Pas de NOTAMs connus pour ce terrain.



MET'MAP, la Météo Aéronautique d'un coup d'oeil ! - Copyright ORBIFLY Décembre 2007 - Disclaimer

ORBIFLY MET'MAP TEAM :

Programmation & Développement : Alexandra Zaïnal
Conception & Développement : Baudouin d'Aumeries
Co-Programmation & Développement : Marc-Olivier Méhu
Soutien technique & logistique : Manuel Goepfert

Contact : metmap@orbifly.com




SOURCES & CREDITS :

   NOAA